This is the latest recevied weather packets stored in our database for station/object JE4YKI-13. If no packets are shown the sender has not sent any weather packets the latest 1 day(s).
| Time | Temp. | Humidity | Pressure | Rain* | Wind** | Luminosity | Snow |
|---|---|---|---|---|---|---|---|
| 1777970405 | 19.44° C | 40% | 1017.4 hPa | 0 mm | 0 m/s | - | - |
| 1777969804 | 19.44° C | 39% | 1017.2 hPa | 0 mm | 0 m/s | - | - |
| 1777969204 | 20° C | 40% | 1017.2 hPa | 0 mm | 0 m/s | - | - |
| 1777968603 | 20.56° C | 40% | 1017.2 hPa | 0 mm | 1.34 m/s, 238° | - | - |
| 1777968003 | 20.56° C | 39% | 1017.2 hPa | 0 mm | 0.45 m/s, 172° | - | - |
| 1777967402 | 21.11° C | 38% | 1017.1 hPa | 0 mm | 2.24 m/s, 292° | - | - |
| 1777966802 | 21.11° C | 37% | 1017.2 hPa | 0 mm | 1.34 m/s, 205° | - | - |
| 1777966202 | 21.67° C | 36% | 1017.2 hPa | 0 mm | 2.68 m/s, 201° | - | - |
| 1777965602 | 21.67° C | 34% | 1017.1 hPa | 0 mm | 0.89 m/s, 140° | - | - |
| 1777965001 | 22.22° C | 32% | 1017.2 hPa | 0 mm | 0.89 m/s, 142° | - | - |
| 1777964401 | 22.22° C | 32% | 1017.3 hPa | 0 mm | 0.89 m/s, 248° | - | - |
| 1777963830 | 22.22° C | 32% | 1017.3 hPa | 0 mm | 0.89 m/s, 161° | - | - |
| 1777963200 | 22.22° C | 31% | 1017.4 hPa | 0 mm | 0.89 m/s, 169° | - | - |
| 1777962600 | 22.22° C | 35% | 1017.3 hPa | 0 mm | 0.45 m/s, 160° | - | - |
| 1777961999 | 21.67° C | 36% | 1017.3 hPa | 0 mm | 1.79 m/s, 90° | - | - |
| 1777961397 | 22.22° C | 34% | 1017.3 hPa | 0 mm | 0.89 m/s, 136° | - | - |
| 1777960797 | 21.67° C | 33% | 1017.5 hPa | 0 mm | 1.79 m/s, 139° | - | - |
| 1777960196 | 21.67° C | 33% | 1017.6 hPa | 0 mm | 1.79 m/s, 99° | - | - |
| 1777959595 | 21.67° C | 34% | 1017.7 hPa | 0 mm | 2.24 m/s, 98° | - | - |
| 1777958994 | 21.67° C | 34% | 1018 hPa | 0 mm | 1.34 m/s, 79° | - | - |
| 1777958394 | 21.67° C | 31% | 1018.2 hPa | 0 mm | 1.79 m/s, 104° | - | - |
| 1777957192 | 21.67° C | 32% | 1018.4 hPa | 0 mm | 0.89 m/s, 129° | - | - |
| 1777956592 | 21.67° C | 32% | 1018.6 hPa | 0 mm | 2.24 m/s, 115° | - | - |
| 1777955991 | 21.67° C | 31% | 1018.7 hPa | 0 mm | 1.79 m/s, 65° | - | - |
| 1777955390 | 21.67° C | 31% | 1018.8 hPa | 0 mm | 1.79 m/s, 117° | - | - |
* Rain latest hour (hover to see other rain measurements)
** Current wind speed in m/s (hover to see current wind gust speed)